TimeEDT,TemperatureF,Dew PointF,Humidity,Sea Level PressureIn,VisibilityMPH,Wind Direction,Wind SpeedMPH,Gust SpeedMPH,PrecipitationIn,Events,Conditions,WindDirDegrees,DateUTC
12:09 AM,55.4,51.8,88,30.20,10.0,NNE,3.5,-,N/A,,Clear,30,2013-09-29 04:09:00
12:29 AM,55.4,53.6,94,30.20,10.0,Calm,Calm,-,N/A,,Clear,0,2013-09-29 04:29:00
12:49 AM,55.4,51.8,88,30.20,10.0,Calm,Calm,-,N/A,,Clear,0,2013-09-29 04:49:00
1:09 AM,53.6,50.0,88,30.19,10.0,NNE,3.5,-,N/A,,Clear,30,2013-09-29 05:09:00
1:29 AM,55.4,53.6,94,30.18,10.0,NNE,3.5,-,N/A,,Clear,20,2013-09-29 05:29:00
1:49 AM,55.4,53.6,94,30.18,10.0,NNE,4.6,-,N/A,,Clear,20,2013-09-29 05:49:00
2:09 AM,59.0,55.4,88,30.18,10.0,North,3.5,-,N/A,,Clear,10,2013-09-29 06:09:00
2:29 AM,59.0,55.4,88,30.17,10.0,NNE,4.6,-,N/A,,Clear,20,2013-09-29 06:29:00
2:49 AM,55.4,53.6,94,30.16,10.0,NNE,3.5,-,N/A,,Clear,20,2013-09-29 06:49:00
3:09 AM,59.0,55.4,88,30.16,10.0,NNE,3.5,-,N/A,,Clear,20,2013-09-29 07:09:00
3:29 AM,59.0,55.4,88,30.15,10.0,NNE,3.5,-,N/A,,Scattered Clouds,20,2013-09-29 07:29:00
3:49 AM,59.0,55.4,88,30.15,10.0,NNE,3.5,-,N/A,,Scattered Clouds,20,2013-09-29 07:49:00
4:09 AM,55.4,51.8,88,30.15,10.0,Calm,Calm,-,N/A,,Scattered Clouds,0,2013-09-29 08:09:00
4:30 AM,55.4,53.6,94,30.15,10.0,NNE,4.6,-,N/A,,Scattered Clouds,20,2013-09-29 08:30:00
4:50 AM,57.2,55.4,94,30.15,10.0,North,4.6,-,N/A,,Scattered Clouds,10,2013-09-29 08:50:00
5:10 AM,59.0,55.4,88,30.14,10.0,NNE,4.6,-,N/A,,Scattered Clouds,20,2013-09-29 09:10:00
5:30 AM,59.0,55.4,88,30.15,10.0,North,3.5,-,N/A,,Mostly Cloudy,350,2013-09-29 09:30:00
5:50 AM,59.0,55.4,88,30.15,10.0,North,5.8,-,N/A,,Scattered Clouds,360,2013-09-29 09:50:00
6:10 AM,59.0,55.4,88,30.15,10.0,North,5.8,-,N/A,,Scattered Clouds,10,2013-09-29 10:10:00
6:30 AM,59.0,55.4,88,30.15,10.0,North,4.6,-,N/A,,Mostly Cloudy,360,2013-09-29 10:30:00
6:50 AM,59.0,55.4,88,30.15,10.0,North,4.6,-,N/A,,Scattered Clouds,360,2013-09-29 10:50:00
7:10 AM,59.0,55.4,88,30.16,10.0,North,5.8,-,N/A,,Mostly Cloudy,360,2013-09-29 11:10:00
7:30 AM,59.0,55.4,88,30.15,10.0,North,5.8,-,N/A,,Mostly Cloudy,360,2013-09-29 11:30:00
7:50 AM,59.0,55.4,88,30.16,10.0,North,6.9,-,N/A,,Mostly Cloudy,10,2013-09-29 11:50:00
8:10 AM,59.0,55.4,88,30.16,10.0,North,5.8,-,N/A,,Mostly Cloudy,360,2013-09-29 12:10:00
8:30 AM,60.8,59.0,94,30.16,10.0,North,5.8,-,N/A,,Mostly Cloudy,10,2013-09-29 12:30:00
8:50 AM,60.8,57.2,88,30.16,10.0,North,5.8,-,N/A,,Mostly Cloudy,350,2013-09-29 12:50:00
9:10 AM,60.8,57.2,88,30.17,10.0,North,6.9,-,N/A,,Mostly Cloudy,10,2013-09-29 13:10:00
9:30 AM,60.8,57.2,88,30.17,10.0,NNE,6.9,-,N/A,,Scattered Clouds,30,2013-09-29 13:30:00
9:50 AM,60.8,57.2,88,30.17,10.0,ENE,4.6,-,N/A,,Scattered Clouds,60,2013-09-29 13:50:00
10:10 AM,64.4,59.0,83,30.16,10.0,NNE,5.8,-,N/A,,Scattered Clouds,20,2013-09-29 14:10:00
10:30 AM,68.0,59.0,73,30.15,10.0,ENE,5.8,-,N/A,,Scattered Clouds,60,2013-09-29 14:30:00
10:50 AM,68.0,59.0,73,30.15,10.0,NE,6.9,-,N/A,,Clear,40,2013-09-29 14:50:00
11:10 AM,69.8,59.0,68,30.15,10.0,NE,5.8,-,N/A,,Scattered Clouds,40,2013-09-29 15:10:00
11:30 AM,69.8,57.2,64,30.15,10.0,NE,8.1,-,N/A,,Scattered Clouds,40,2013-09-29 15:30:00
11:50 AM,69.8,55.4,60,30.14,10.0,NNE,8.1,-,N/A,,Scattered Clouds,20,2013-09-29 15:50:00
12:10 PM,69.8,55.4,60,30.12,10.0,NNE,8.1,-,N/A,,Scattered Clouds,30,2013-09-29 16:10:00
12:30 PM,71.6,51.8,50,30.13,10.0,NNE,4.6,-,N/A,,Scattered Clouds,20,2013-09-29 16:30:00
12:50 PM,71.6,50.0,46,30.12,10.0,ENE,11.5,-,N/A,,Scattered Clouds,60,2013-09-29 16:50:00
1:11 PM,73.4,50.0,44,30.12,10.0,East,8.1,-,N/A,,Scattered Clouds,90,2013-09-29 17:11:00
1:31 PM,71.6,50.0,46,30.12,10.0,NE,5.8,-,N/A,,Scattered Clouds,40,2013-09-29 17:31:00
1:51 PM,75.2,51.8,44,30.11,10.0,NNE,8.1,-,N/A,,Scattered Clouds,20,2013-09-29 17:51:00
2:11 PM,71.6,50.0,46,30.10,10.0,North,5.8,-,N/A,,Clear,350,2013-09-29 18:11:00
2:31 PM,71.6,50.0,46,30.10,5.0,North,5.8,-,N/A,,Scattered Clouds,10,2013-09-29 18:31:00
2:50 PM,73.4,50.0,44,30.09,10.0,North,5.8,-,N/A,,Scattered Clouds,10,2013-09-29 18:50:00
3:11 PM,73.4,50.0,44,30.08,10.0,East,3.5,-,N/A,,Scattered Clouds,80,2013-09-29 19:11:00
3:31 PM,71.6,50.0,46,30.08,10.0,ENE,8.1,-,N/A,,Mostly Cloudy,70,2013-09-29 19:31:00
3:51 PM,75.2,51.8,44,30.08,10.0,ENE,5.8,-,N/A,,Scattered Clouds,60,2013-09-29 19:51:00
4:11 PM,73.4,51.8,47,30.07,10.0,ENE,10.4,-,N/A,,Mostly Cloudy,70,2013-09-29 20:11:00
4:31 PM,73.4,51.8,47,30.07,10.0,East,6.9,-,N/A,,Scattered Clouds,80,2013-09-29 20:31:00
4:51 PM,73.4,51.8,47,30.07,10.0,East,6.9,-,N/A,,Clear,80,2013-09-29 20:51:00
5:11 PM,71.6,51.8,50,30.07,10.0,ENE,6.9,-,N/A,,Clear,70,2013-09-29 21:11:00
5:31 PM,69.8,50.0,49,30.07,10.0,East,9.2,-,N/A,,Clear,100,2013-09-29 21:31:00
5:51 PM,69.8,50.0,49,30.07,10.0,ENE,6.9,-,N/A,,Clear,70,2013-09-29 21:51:00
6:11 PM,69.8,50.0,49,30.08,10.0,East,4.6,-,N/A,,Clear,90,2013-09-29 22:11:00
6:31 PM,64.4,50.0,59,30.08,10.0,East,3.5,-,N/A,,Clear,80,2013-09-29 22:31:00
6:51 PM,62.6,50.0,63,30.08,10.0,East,5.8,-,N/A,,Clear,80,2013-09-29 22:51:00
7:11 PM,62.6,50.0,63,30.08,10.0,East,4.6,-,N/A,,Clear,90,2013-09-29 23:11:00
7:31 PM,60.8,50.0,68,30.08,10.0,East,4.6,-,N/A,,Clear,90,2013-09-29 23:31:00
7:51 PM,60.8,50.0,68,30.08,10.0,Calm,Calm,-,N/A,,Clear,0,2013-09-29 23:51:00
8:11 PM,60.8,50.0,68,30.09,10.0,Calm,Calm,-,N/A,,Clear,0,2013-09-30 00:11:00
8:31 PM,55.4,50.0,82,30.09,10.0,Calm,Calm,-,N/A,,Clear,0,2013-09-30 00:31:00
8:51 PM,55.4,48.2,77,30.09,10.0,East,3.5,-,N/A,,Clear,80,2013-09-30 00:51:00
9:11 PM,57.2,50.0,77,30.08,10.0,East,3.5,-,N/A,,Clear,100,2013-09-30 01:11:00
9:31 PM,57.2,50.0,77,30.08,10.0,Calm,Calm,-,N/A,,Clear,0,2013-09-30 01:31:00
9:51 PM,55.4,50.0,82,30.08,10.0,East,3.5,-,N/A,,Clear,100,2013-09-30 01:51:00
10:12 PM,55.4,48.2,77,30.08,10.0,East,3.5,-,N/A,,Clear,100,2013-09-30 02:12:00
10:32 PM,53.6,48.2,82,30.08,10.0,Calm,Calm,-,N/A,,Clear,0,2013-09-30 02:32:00
10:52 PM,51.8,48.2,88,30.07,10.0,Calm,Calm,-,N/A,,Clear,0,2013-09-30 02:52:00
11:12 PM,51.8,48.2,88,30.07,10.0,Calm,Calm,-,N/A,,Clear,0,2013-09-30 03:12:00
11:32 PM,50.0,46.4,87,30.07,10.0,Calm,Calm,-,N/A,,Clear,0,2013-09-30 03:32:00
11:52 PM,50.0,46.4,87,30.06,10.0,Calm,Calm,-,N/A,,Clear,0,2013-09-30 03:52:00